Time,TemperatureF,DewpointF,PressureIn,WindDirection,WindDirectionDegrees,WindSpeedMPH,WindSpeedGustMPH,Humidity,HourlyPrecipIn,Conditions,Clouds,dailyrainin,SolarRadiationWatts/m^2,SoftwareType,DateUTC
2013-02-02 00:01:00,39.8,20.0,25.19,NE,38,1.0,4.0,45,0.00,,,0.00,0,weatherlink.com 1.10,2013-02-02 07:01:00,
2013-02-02 00:16:00,40.0,21.0,25.19,NNE,30,1.0,6.0,47,0.00,,,0.00,0,weatherlink.com 1.10,2013-02-02 07:16:00,
2013-02-02 00:32:00,39.6,21.0,25.20,NNE,27,3.0,4.0,48,0.00,,,0.00,0,weatherlink.com 1.10,2013-02-02 07:32:00,
2013-02-02 00:47:00,39.7,21.0,25.20,NE,46,4.0,7.0,48,0.00,,,0.00,0,weatherlink.com 1.10,2013-02-02 07:47:00,
2013-02-02 01:02:00,39.2,21.0,25.20,NNE,27,2.0,6.0,48,0.00,,,0.00,0,weatherlink.com 1.10,2013-02-02 08:02:00,
2013-02-02 01:17:00,37.9,21.0,25.20,NE,43,1.0,4.0,50,0.00,,,0.00,0,weatherlink.com 1.10,2013-02-02 08:17:00,
2013-02-02 01:32:00,36.7,20.0,25.20,North,360,3.0,3.0,52,0.00,,,0.00,0,weatherlink.com 1.10,2013-02-02 08:32:00,
2013-02-02 01:47:00,37.0,21.0,25.20,NNE,12,3.0,8.0,52,0.00,,,0.00,0,weatherlink.com 1.10,2013-02-02 08:47:00,
2013-02-02 02:02:00,37.5,21.0,25.20,NNW,330,2.0,5.0,51,0.00,,,0.00,0,weatherlink.com 1.10,2013-02-02 09:02:00,
2013-02-02 02:17:00,36.1,20.0,25.21,NNW,329,3.0,4.0,53,0.00,,,0.00,0,weatherlink.com 1.10,2013-02-02 09:17:00,
2013-02-02 02:32:00,35.3,20.0,25.22,NNW,328,0.0,2.0,55,0.00,,,0.00,0,weatherlink.com 1.10,2013-02-02 09:32:00,
2013-02-02 02:47:00,34.1,20.0,25.22,NNW,331,0.0,0.0,57,0.00,,,0.00,0,weatherlink.com 1.10,2013-02-02 09:47:00,
2013-02-02 03:02:00,32.4,20.0,25.22,NW,306,0.0,0.0,60,0.00,,,0.00,0,weatherlink.com 1.10,2013-02-02 10:02:00,
2013-02-02 03:17:00,31.1,20.0,25.22,WNW,288,0.0,0.0,63,0.00,,,0.00,0,weatherlink.com 1.10,2013-02-02 10:17:00,
2013-02-02 03:32:00,29.7,20.0,25.22,WNW,288,0.0,0.0,66,0.00,,,0.00,0,weatherlink.com 1.10,2013-02-02 10:32:00,
2013-02-02 03:47:00,28.3,19.0,25.22,WNW,288,0.0,0.0,68,0.00,,,0.00,0,weatherlink.com 1.10,2013-02-02 10:47:00,
2013-02-02 04:02:00,28.5,20.0,25.23,NW,311,0.0,0.0,69,0.00,,,0.00,0,weatherlink.com 1.10,2013-02-02 11:02:00,
2013-02-02 04:17:00,28.3,19.0,25.23,NW,313,0.0,0.0,69,0.00,,,0.00,0,weatherlink.com 1.10,2013-02-02 11:17:00,
2013-02-02 04:32:00,28.7,20.0,25.23,NNW,338,0.0,0.0,70,0.00,,,0.00,0,weatherlink.com 1.10,2013-02-02 11:32:00,
2013-02-02 04:47:00,28.8,19.0,25.23,NW,318,0.0,0.0,68,0.00,,,0.00,0,weatherlink.com 1.10,2013-02-02 11:47:00,
2013-02-02 05:02:00,27.9,19.0,25.23,NW,317,0.0,0.0,70,0.00,,,0.00,0,weatherlink.com 1.10,2013-02-02 12:02:00,
2013-02-02 05:17:00,27.6,19.0,25.23,North,11,0.0,0.0,71,0.00,,,0.00,0,weatherlink.com 1.10,2013-02-02 12:17:00,
2013-02-02 05:33:00,27.5,19.0,25.23,ENE,59,0.0,3.0,71,0.00,,,0.00,0,weatherlink.com 1.10,2013-02-02 12:33:00,
2013-02-02 05:48:00,27.0,19.0,25.23,ENE,57,0.0,1.0,72,0.00,,,0.00,0,weatherlink.com 1.10,2013-02-02 12:48:00,
2013-02-02 06:03:00,26.6,19.0,25.23,NW,311,2.0,3.0,73,0.00,,,0.00,0,weatherlink.com 1.10,2013-02-02 13:03:00,
2013-02-02 06:18:00,25.7,19.0,25.23,NW,310,2.0,3.0,75,0.00,,,0.00,0,weatherlink.com 1.10,2013-02-02 13:18:00,
2013-02-02 06:33:00,25.3,19.0,25.23,NW,326,0.0,2.0,76,0.00,,,0.00,0,weatherlink.com 1.10,2013-02-02 13:33:00,
2013-02-02 06:48:00,25.0,19.0,25.23,WNW,292,0.0,2.0,77,0.00,,,0.00,0,weatherlink.com 1.10,2013-02-02 13:48:00,
2013-02-02 07:03:00,24.6,18.0,25.23,NW,304,2.0,2.0,77,0.00,,,0.00,0,weatherlink.com 1.10,2013-02-02 14:03:00,
2013-02-02 07:18:00,24.2,18.0,25.23,NW,304,0.0,1.0,78,0.00,,,0.00,0,weatherlink.com 1.10,2013-02-02 14:18:00,
2013-02-02 07:33:00,24.1,18.0,25.24,NW,304,0.0,1.0,78,0.00,,,0.00,0,weatherlink.com 1.10,2013-02-02 14:33:00,
2013-02-02 07:48:00,25.0,19.0,25.24,NW,306,0.0,0.0,77,0.00,,,0.00,0,weatherlink.com 1.10,2013-02-02 14:48:00,
2013-02-02 08:03:00,26.8,20.0,25.25,NW,306,0.0,0.0,74,0.00,,,0.00,0,weatherlink.com 1.10,2013-02-02 15:03:00,
2013-02-02 08:18:00,29.3,20.0,25.25,NW,306,0.0,0.0,69,0.00,,,0.00,0,weatherlink.com 1.10,2013-02-02 15:18:00,
2013-02-02 08:33:00,31.6,21.0,25.25,NW,306,0.0,0.0,65,0.00,,,0.00,0,weatherlink.com 1.10,2013-02-02 15:33:00,
2013-02-02 08:48:00,34.0,21.0,25.26,North,349,0.0,0.0,60,0.00,,,0.00,0,weatherlink.com 1.10,2013-02-02 15:48:00,
2013-02-02 09:03:00,35.9,22.0,25.26,NNE,13,3.0,8.0,57,0.00,,,0.00,0,weatherlink.com 1.10,2013-02-02 16:03:00,
2013-02-02 09:19:00,37.1,22.0,25.26,NW,319,3.0,6.0,55,0.00,,,0.00,0,weatherlink.com 1.10,2013-02-02 16:19:00,
2013-02-02 09:33:00,37.5,22.0,25.26,NNW,334,4.0,6.0,54,0.00,,,0.00,0,weatherlink.com 1.10,2013-02-02 16:33:00,
2013-02-02 09:48:00,38.5,22.0,25.27,NNW,340,1.0,4.0,52,0.00,,,0.00,0,weatherlink.com 1.10,2013-02-02 16:48:00,
2013-02-02 10:03:00,40.1,23.0,25.27,NE,38,6.0,6.0,50,0.00,,,0.00,0,weatherlink.com 1.10,2013-02-02 17:03:00,
2013-02-02 10:18:00,41.5,22.0,25.27,NNE,13,3.0,6.0,46,0.00,,,0.00,0,weatherlink.com 1.10,2013-02-02 17:18:00,
2013-02-02 10:33:00,42.7,22.0,25.27,NE,50,5.0,6.0,44,0.00,,,0.00,0,weatherlink.com 1.10,2013-02-02 17:33:00,
2013-02-02 10:48:00,43.6,22.0,25.27,NE,51,1.0,7.0,43,0.00,,,0.00,0,weatherlink.com 1.10,2013-02-02 17:48:00,
2013-02-02 11:03:00,44.8,22.0,25.27,ENE,75,3.0,7.0,41,0.00,,,0.00,0,weatherlink.com 1.10,2013-02-02 18:03:00,
2013-02-02 11:19:00,45.7,22.0,25.26,NE,43,5.0,7.0,39,0.00,,,0.00,0,weatherlink.com 1.10,2013-02-02 18:19:00,
2013-02-02 11:34:00,46.5,21.0,25.26,ENE,66,3.0,7.0,37,0.00,,,0.00,0,weatherlink.com 1.10,2013-02-02 18:34:00,
2013-02-02 11:49:00,47.6,21.0,25.26,North,11,6.0,8.0,35,0.00,,,0.00,0,weatherlink.com 1.10,2013-02-02 18:49:00,
2013-02-02 12:04:00,48.5,21.0,25.25,WNW,299,1.0,7.0,34,0.00,,,0.00,0,weatherlink.com 1.10,2013-02-02 19:04:00,
2013-02-02 12:19:00,49.8,22.0,25.24,North,5,3.0,5.0,33,0.00,,,0.00,0,weatherlink.com 1.10,2013-02-02 19:19:00,
2013-02-02 12:34:00,50.1,21.0,25.23,ENE,59,3.0,6.0,32,0.00,,,0.00,0,weatherlink.com 1.10,2013-02-02 19:34:00,
2013-02-02 12:49:00,50.7,20.0,25.23,ENE,75,4.0,6.0,30,0.00,,,0.00,0,weatherlink.com 1.10,2013-02-02 19:49:00,
2013-02-02 13:04:00,51.7,21.0,25.22,North,349,1.0,5.0,30,0.00,,,0.00,0,weatherlink.com 1.10,2013-02-02 20:04:00,
2013-02-02 13:19:00,52.2,20.0,25.21,ENE,74,7.0,7.0,28,0.00,,,0.00,0,weatherlink.com 1.10,2013-02-02 20:19:00,
2013-02-02 13:34:00,53.6,20.0,25.21,NW,321,1.0,7.0,27,0.00,,,0.00,0,weatherlink.com 1.10,2013-02-02 20:34:00,
2013-02-02 13:50:00,54.6,20.0,25.20,NE,55,6.0,7.0,26,0.00,,,0.00,0,weatherlink.com 1.10,2013-02-02 20:50:00,
2013-02-02 14:04:00,55.2,20.0,25.20,NE,40,3.0,7.0,25,0.00,,,0.00,0,weatherlink.com 1.10,2013-02-02 21:04:00,
2013-02-02 14:19:00,55.8,19.0,25.19,East,101,1.0,7.0,24,0.00,,,0.00,0,weatherlink.com 1.10,2013-02-02 21:19:00,
2013-02-02 14:34:00,55.5,19.0,25.19,NE,53,4.0,8.0,24,0.00,,,0.00,0,weatherlink.com 1.10,2013-02-02 21:34:00,
2013-02-02 14:49:00,55.9,18.0,25.19,North,5,1.0,6.0,23,0.00,,,0.00,0,weatherlink.com 1.10,2013-02-02 21:49:00,
2013-02-02 15:04:00,56.1,19.0,25.19,ENE,59,0.0,7.0,23,0.00,,,0.00,0,weatherlink.com 1.10,2013-02-02 22:04:00,
2013-02-02 15:19:00,56.1,19.0,25.18,NE,43,4.0,10.0,23,0.00,,,0.00,0,weatherlink.com 1.10,2013-02-02 22:19:00,
2013-02-02 15:34:00,56.9,18.0,25.18,NNE,28,2.0,5.0,22,0.00,,,0.00,0,weatherlink.com 1.10,2013-02-02 22:34:00,
2013-02-02 15:49:00,56.9,18.0,25.18,ENE,59,3.0,6.0,22,0.00,,,0.00,0,weatherlink.com 1.10,2013-02-02 22:49:00,
2013-02-02 16:04:00,56.7,18.0,25.17,NE,46,1.0,4.0,22,0.00,,,0.00,0,weatherlink.com 1.10,2013-02-02 23:04:00,
2013-02-02 16:19:00,57.2,18.0,25.17,ENE,66,2.0,4.0,22,0.00,,,0.00,0,weatherlink.com 1.10,2013-02-02 23:19:00,
2013-02-02 16:34:00,56.8,18.0,25.17,NNW,345,2.0,7.0,22,0.00,,,0.00,0,weatherlink.com 1.10,2013-02-02 23:34:00,
2013-02-02 16:49:00,56.9,18.0,25.17,NNW,331,2.0,4.0,22,0.00,,,0.00,0,weatherlink.com 1.10,2013-02-02 23:49:00,
2013-02-02 17:04:00,57.2,18.0,25.17,NW,318,0.0,1.0,22,0.00,,,0.00,0,weatherlink.com 1.10,2013-02-03 00:04:00,
2013-02-02 17:19:00,56.3,18.0,25.17,ENE,59,0.0,3.0,22,0.00,,,0.00,0,weatherlink.com 1.10,2013-02-03 00:19:00,
2013-02-02 17:34:00,55.4,17.0,25.17,WNW,291,0.0,0.0,22,0.00,,,0.00,0,weatherlink.com 1.10,2013-02-03 00:34:00,
2013-02-02 17:49:00,54.1,17.0,25.17,WNW,291,0.0,0.0,23,0.00,,,0.00,0,weatherlink.com 1.10,2013-02-03 00:49:00,
2013-02-02 18:04:00,52.9,18.0,25.18,WNW,291,0.0,0.0,25,0.00,,,0.00,0,weatherlink.com 1.10,2013-02-03 01:04:00,
2013-02-02 18:19:00,51.8,18.0,25.18,WNW,291,0.0,0.0,26,0.00,,,0.00,0,weatherlink.com 1.10,2013-02-03 01:19:00,
2013-02-02 18:34:00,50.8,18.0,25.19,North,351,2.0,5.0,27,0.00,,,0.00,0,weatherlink.com 1.10,2013-02-03 01:34:00,
2013-02-02 18:49:00,50.1,17.0,25.19,NNW,342,2.0,3.0,27,0.00,,,0.00,0,weatherlink.com 1.10,2013-02-03 01:49:00,
2013-02-02 19:04:00,49.5,17.0,25.19,NNW,346,1.0,4.0,28,0.00,,,0.00,0,weatherlink.com 1.10,2013-02-03 02:04:00,
2013-02-02 19:19:00,49.6,18.0,25.19,NNW,338,2.0,4.0,28,0.00,,,0.00,0,weatherlink.com 1.10,2013-02-03 02:19:00,
2013-02-02 19:34:00,48.9,18.0,25.19,NNE,15,3.0,5.0,29,0.00,,,0.00,0,weatherlink.com 1.10,2013-02-03 02:34:00,
2013-02-02 19:49:00,48.5,17.0,25.19,NNW,332,2.0,7.0,29,0.00,,,0.00,0,weatherlink.com 1.10,2013-02-03 02:49:00,
2013-02-02 20:04:00,47.8,18.0,25.20,NW,322,0.0,2.0,30,0.00,,,0.00,0,weatherlink.com 1.10,2013-02-03 03:04:00,
2013-02-02 20:19:00,46.1,18.0,25.20,NW,307,1.0,2.0,32,0.00,,,0.00,0,weatherlink.com 1.10,2013-02-03 03:19:00,
2013-02-02 20:34:00,44.8,17.0,25.21,NW,310,0.0,0.0,33,0.00,,,0.00,0,weatherlink.com 1.10,2013-02-03 03:34:00,
2013-02-02 20:49:00,44.5,18.0,25.20,NNE,22,2.0,4.0,34,0.00,,,0.00,0,weatherlink.com 1.10,2013-02-03 03:49:00,
2013-02-02 21:04:00,44.5,19.0,25.20,NNE,16,1.0,5.0,36,0.00,,,0.00,0,weatherlink.com 1.10,2013-02-03 04:04:00,
2013-02-02 21:19:00,44.0,19.0,25.21,NNW,327,2.0,3.0,37,0.00,,,0.00,0,weatherlink.com 1.10,2013-02-03 04:19:00,
2013-02-02 21:34:00,43.0,19.0,25.21,NNE,27,1.0,4.0,38,0.00,,,0.00,0,weatherlink.com 1.10,2013-02-03 04:34:00,
2013-02-02 21:49:00,42.7,20.0,25.21,NNE,22,2.0,4.0,40,0.00,,,0.00,0,weatherlink.com 1.10,2013-02-03 04:49:00,
2013-02-02 22:06:00,41.1,19.0,25.21,WNW,294,1.0,2.0,41,0.00,,,0.00,0,weatherlink.com 1.10,2013-02-03 05:06:00,
2013-02-02 22:20:00,39.9,19.0,25.21,NW,326,0.0,1.0,43,0.00,,,0.00,0,weatherlink.com 1.10,2013-02-03 05:20:00,
2013-02-02 22:35:00,39.6,20.0,25.20,NNW,344,2.0,3.0,45,0.00,,,0.00,0,weatherlink.com 1.10,2013-02-03 05:35:00,
2013-02-02 22:50:00,38.9,20.0,25.21,NW,323,0.0,0.0,46,0.00,,,0.00,0,weatherlink.com 1.10,2013-02-03 05:50:00,
2013-02-02 23:05:00,38.2,19.0,25.21,NW,323,0.0,1.0,47,0.00,,,0.00,0,weatherlink.com 1.10,2013-02-03 06:05:00,
2013-02-02 23:20:00,37.1,20.0,25.20,NNW,345,0.0,0.0,50,0.00,,,0.00,0,weatherlink.com 1.10,2013-02-03 06:20:00,
2013-02-02 23:35:00,36.8,20.0,25.20,NNW,338,0.0,0.0,51,0.00,,,0.00,0,weatherlink.com 1.10,2013-02-03 06:35:00,
2013-02-02 23:50:00,36.0,21.0,25.20,NNW,340,0.0,0.0,54,0.00,,,0.00,0,weatherlink.com 1.10,2013-02-03 06:50:00,